Wind_Speed
35 40 42 41 40 37 32 31 33 31 27 27 28 28 30 29 27 26 28 29 30 32 33 35 34 32 33 36 37 39 40 41 43 45 47 46 42 41 42 45 47 49 50
37 38 38 38 42 38 35 32 33 33 27 27 28 28 31 30 28 28 29 30 32 32 33 34 33 34 36 38 40 41 43 45 46 47 44 40 43 45 47 48 50 53 57
41 42 38 36 39 40 35 35 33 33 30 28 28 27 28 30 33 31 31 32 33 33 34 35 36 37 39 41 43 44 46 48 49 47 46 46 44 45 45 50 55 58 61
41 42 40 36 36 40 38 35 33 33 33 29 27 27 28 29 32 33 34 34 34 35 37 39 40 40 43 44 45 47 49 48 47 48 49 50 52 53 53 54 57 61 62
43 42 39 38 36 41 39 36 34 33 32 29 27 27 27 27 29 31 33 34 35 37 40 42 43 44 45 45 48 49 49 47 48 50 51 54 58 62 64 62 62 61 65
44 41 39 38 37 39 37 36 36 33 31 29 28 29 28 28 30 31 34 35 37 39 42 44 44 45 46 48 50 49 49 49 51 53 56 59 62 65 68 66 65 65 65
45 42 39 37 37 38 36 36 37 34 32 30 30 30 28 28 30 33 34 35 38 42 43 44 44 46 48 49 50 50 51 52 54 57 60 64 68 69 69 70 70 70 70
42 41 39 39 41 39 38 38 36 35 32 31 29 29 28 29 31 33 35 38 41 43 43 43 45 47 49 49 50 51 53 55 58 61 65 67 68 71 73 74 74 73 72
41 40 39 39 41 40 39 38 36 35 30 31 30 30 28 30 34 35 37 40 40 40 42 44 47 48 49 50 51 53 56 59 62 64 65 69 72 74 74 74 76 79 79
40 37 39 39 37 39 39 38 36 35 32 32 32 32 31 32 35 36 36 37 39 41 43 46 47 49 50 51 53 56 60 62 62 65 69 73 74 73 74 76 79 83 88
34 36 40 40 38 41 40 37 36 33 33 32 33 33 33 32 32 33 35 37 40 42 45 47 48 49 51 54 57 59 60 62 65 70 73 73 73 74 77 80 84 89 96
34 35 40 39 41 40 38 37 35 33 33 32 33 33 31 31 32 34 36 38 41 44 46 47 48 51 54 57 57 60 61 66 69 73 72 72 74 76 80 85 92 98 104
33 37 42 41 39 36 36 36 34 34 33 32 31 31 31 32 33 35 37 40 42 44 45 48 50 53 55 57 58 62 66 69 74 71 72 73 76 81 88 94 99 105 110
36 37 38 38 37 36 36 37 35 32 31 31 31 31 32 33 34 36 39 40 42 44 46 50 52 53 55 58 62 65 69 72 70 70 72 77 84 90 94 99 105 111 116
34 34 32 35 36 35 34 33 31 29 29 30 31 31 32 33 35 36 38 40 42 46 49 51 52 55 58 63 65 70 70 67 68 72 77 84 89 95 101 107 112 114 109
31 28 28 31 31 32 32 31 29 28 29 29 29 30 31 33 35 37 39 41 45 47 51 53 54 59 62 66 70 68 67 68 72 77 83 89 96 103 108 112 111 101 92
28 27 27 29 29 28 28 28 26 25 25 25 27 29 32 34 36 38 41 44 47 51 52 53 58 62 65 69 65 66 67 71 75 83 91 97 104 109 113 106 93 82 70
23 22 24 24 24 24 23 21 20 22 24 26 28 30 32 34 37 40 44 48 50 51 53 57 60 65 65 63 64 66 71 75 82 90 98 105 107 112 105 92 77 60 51
19 19 19 19 17 17 18 20 21 23 24 27 29 31 33 36 39 44 47 47 49 53 56 59 63 60 60 62 66 71 76 81 88 95 103 106 112 105 90 76 56 45 40
18 16 16 16 18 20 20 21 23 25 26 28 30 32 34 39 42 44 45 49 51 55 59 59 58 58 61 66 71 76 81 88 94 100 106 110 102 84 71 55 44 36 34
13 15 17 20 21 21 21 22 23 24 26 28 31 34 37 40 42 44 47 49 54 57 54 54 57 60 65 71 76 82 88 95 99 105 107 97 79 67 53 44 36 36 36
14 17 18 19 18 18 19 21 22 25 28 30 32 36 38 40 42 44 48 52 52 51 52 55 59 65 71 76 81 87 94 99 102 104 89 75 63 50 43 36 35 35 28
17 15 16 16 17 17 19 22 25 27 29 32 34 36 37 39 43 48 49 48 48 50 54 58 63 69 75 79 86 92 97 101 100 80 72 61 48 41 35 33 34 28 31
13 14 14 15 17 20 22 24 27 29 31 32 33 35 38 43 45 46 45 46 49 53 57 62 68 72 79 86 92 97 101 97 76 66 59 46 39 34 33 32 29 33 32
13 16 17 17 18 21 23 25 28 29 29 31 34 38 40 43 42 43 44 48 53 57 61 66 72 79 86 91 98 101 95 75 65 58 45 37 32 32 33 34 36 33 32
12 13 15 17 20 23 25 26 26 28 29 34 37 39 40 40 41 44 48 52 56 61 66 73 79 85 92 96 101 91 73 65 57 48 35 30 30 31 32 31 31 31 32
Wind_Direction
245 239 248 247 245 248 250 249 245 247 247 247 248 248 247 245 250 257 260 264 268 273 278 286 288 283 282 285 289 291 293 293 295 294 295 295 294 293 291 291 291 291 291
246 242 250 248 239 244 248 247 247 248 252 247 248 252 250 246 250 255 261 266 271 277 282 289 286 283 285 288 291 293 294 296 297 297 295 291 293 294 295 295 295 294 294
246 245 244 245 239 240 244 246 248 246 249 250 248 254 256 250 250 255 263 268 272 277 283 288 286 286 290 292 292 294 296 298 298 296 294 291 289 288 290 293 294 294 294
245 248 246 241 240 238 241 246 249 247 246 250 248 251 253 252 252 257 262 267 272 276 281 286 287 289 291 291 294 296 297 297 297 296 296 296 295 293 291 289 290 291 292
248 249 245 236 238 238 240 244 248 248 246 248 249 253 254 255 255 257 261 267 273 277 281 285 287 289 291 294 297 297 298 299 298 297 297 297 298 297 298 297 295 295 296
244 243 241 236 236 234 237 243 245 247 247 249 254 255 254 258 259 261 265 270 274 277 281 285 289 291 294 297 298 299 300 300 299 298 298 297 296 296 297 298 298 298 296
241 241 235 233 232 231 234 240 245 245 247 248 251 255 256 260 264 265 268 271 274 277 282 287 290 293 297 298 299 300 301 300 299 299 299 299 299 300 301 300 299 299 299
239 239 233 227 225 227 229 236 241 243 246 245 248 253 256 262 264 266 268 270 274 280 286 288 293 297 297 298 300 300 300 299 299 299 300 301 302 302 302 302 301 299 298
234 234 226 225 225 224 226 234 239 241 244 245 248 254 257 261 264 267 270 274 278 284 287 292 295 295 297 299 300 300 300 300 300 301 302 302 303 304 303 302 300 300 299
227 224 218 216 219 223 226 232 238 240 243 247 251 256 260 263 266 271 275 280 284 288 292 293 294 297 298 299 300 300 301 301 303 303 304 305 305 304 302 302 302 302 303
219 212 209 212 216 222 226 231 238 240 243 248 252 257 261 266 271 275 280 284 288 290 291 293 296 298 299 299 301 302 303 303 305 306 306 306 304 304 304 305 306 306 306
214 209 205 208 213 222 229 234 237 239 242 248 254 261 264 268 275 278 282 286 288 290 292 296 298 298 299 302 303 304 305 306 306 306 306 305 306 307 308 309 308 307 306
201 201 204 208 214 220 230 235 235 235 240 249 256 260 267 272 275 280 284 286 289 292 296 297 299 301 303 303 304 306 306 306 307 307 307 309 309 309 310 310 309 308 308
194 201 206 211 214 220 228 230 230 234 242 249 256 262 267 272 277 281 285 288 292 296 297 299 302 303 304 306 307 306 307 308 308 310 310 311 313 314 313 312 310 310 310
196 203 209 215 217 223 224 225 230 236 244 251 257 263 270 275 279 285 289 292 295 296 300 302 303 305 307 307 306 307 308 308 310 310 314 317 318 318 318 315 314 313 311
195 198 203 209 213 215 218 223 230 237 245 254 262 269 275 281 285 288 291 294 296 299 301 303 305 307 307 306 307 308 309 310 310 314 318 319 320 320 319 317 316 312 312
182 184 195 202 207 213 220 226 233 243 255 263 269 275 280 284 286 290 293 296 298 300 302 303 306 306 306 308 308 310 311 312 315 317 318 318 319 319 319 317 314 314 311
176 183 196 202 209 216 224 234 243 253 261 268 275 279 281 285 289 293 294 296 299 302 303 305 305 306 308 308 310 310 312 315 314 316 317 318 319 319 317 314 316 314 313
183 193 201 209 218 230 240 247 255 262 270 273 276 280 284 289 291 293 297 300 302 304 305 305 306 308 309 310 311 313 314 314 316 318 320 319 319 317 315 316 317 315 315
191 202 216 230 241 245 248 256 262 265 268 274 280 285 288 290 294 298 300 302 303 303 304 307 308 309 310 312 314 314 315 318 319 319 319 318 318 315 316 317 317 316 316
214 223 231 239 245 251 257 260 265 271 277 282 286 289 291 294 297 299 301 302 301 304 307 308 309 311 313 313 315 317 318 319 319 318 318 317 315 316 317 317 317 318 321
229 239 248 254 256 258 261 269 274 278 282 285 288 292 294 297 299 300 300 302 305 307 309 311 312 312 314 316 318 320 320 319 318 319 316 316 317 316 317 317 319 321 324
242 247 249 251 257 263 268 277 281 283 286 290 293 296 298 299 299 301 304 306 309 310 311 311 312 315 317 319 321 321 319 318 319 317 316 318 316 317 317 317 319 319 320
246 249 255 260 266 274 278 279 283 288 291 294 296 297 298 300 303 306 309 310 310 310 310 313 316 317 320 321 320 319 319 320 318 317 318 317 317 318 318 319 319 318 318
252 259 263 268 271 276 282 286 290 291 294 295 297 300 302 305 308 309 309 310 310 311 315 316 318 320 321 320 321 321 322 320 319 320 320 318 318 318 319 320 321 322 322
258 266 270 274 279 284 288 290 291 294 297 300 302 305 307 308 309 310 310 311 314 316 318 322 323 322 322 321 322 323 320 320 320 320 320 317 317 318 320 321 323 324 323
Height
5728 5730 5732 5738 5744 5746 5748 5749 5750 5752 5754 5756 5757 5757 5759 5761 5763 5765 5766 5765 5765 5765 5763 5762 5759 5758 5756 5755 5752 5749 5746 5744 5741 5737 5732 5728 5724 5721 5719 5715 5711 5707 5703
5719 5722 5725 5730 5735 5738 5741 5743 5743 5745 5748 5749 5750 5751 5752 5755 5757 5759 5759 5759 5758 5757 5755 5754 5752 5750 5748 5746 5743 5740 5736 5733 5729 5725 5723 5721 5716 5711 5707 5703 5699 5695 5690
5710 5711 5716 5722 5726 5730 5733 5736 5737 5739 5742 5743 5744 5745 5747 5749 5750 5751 5751 5751 5750 5749 5748 5746 5745 5742 5740 5737 5734 5730 5726 5721 5717 5714 5711 5708 5707 5704 5702 5695 5687 5682 5676
5702 5703 5708 5713 5718 5721 5724 5728 5730 5732 5735 5737 5738 5739 5740 5741 5742 5743 5743 5743 5743 5742 5740 5739 5736 5733 5731 5728 5724 5720 5715 5711 5706 5701 5697 5693 5689 5687 5688 5686 5679 5673 5666
5693 5696 5700 5706 5709 5713 5717 5720 5723 5725 5727 5729 5731 5732 5733 5734 5734 5735 5735 5736 5735 5734 5732 5730 5727 5724 5721 5717 5713 5708 5703 5698 5694 5690 5685 5680 5673 5667 5663 5663 5662 5657 5648
5682 5687 5693 5697 5701 5706 5710 5713 5715 5718 5720 5722 5724 5725 5726 5726 5727 5727 5728 5728 5727 5725 5723 5721 5718 5714 5711 5707 5701 5696 5691 5686 5682 5676 5671 5665 5661 5655 5648 5645 5640 5636 5633
5672 5676 5683 5689 5693 5698 5703 5706 5709 5711 5713 5715 5717 5718 5718 5719 5719 5719 5719 5719 5718 5716 5714 5711 5708 5704 5700 5695 5690 5685 5680 5674 5669 5663 5657 5650 5643 5636 5630 5625 5621 5617 5613
5662 5666 5673 5679 5685 5689 5695 5698 5701 5704 5706 5708 5710 5711 5711 5711 5711 5711 5711 5710 5709 5707 5704 5701 5697 5694 5689 5684 5678 5673 5668 5662 5656 5650 5643 5635 5628 5620 5611 5604 5598 5597 5593
5649 5656 5663 5671 5677 5681 5687 5691 5694 5697 5700 5702 5704 5705 5704 5704 5704 5704 5703 5702 5700 5698 5695 5691 5687 5683 5678 5673 5668 5662 5656 5649 5643 5635 5628 5621 5612 5603 5593 5584 5575 5567 5565
5638 5646 5654 5662 5670 5675 5679 5683 5687 5690 5693 5695 5697 5697 5696 5696 5696 5696 5696 5694 5692 5689 5686 5682 5677 5672 5667 5661 5656 5649 5643 5636 5628 5622 5614 5605 5596 5586 5576 5566 5556 5545 5536
5631 5637 5646 5655 5663 5668 5672 5676 5680 5684 5686 5688 5689 5689 5689 5689 5689 5689 5687 5685 5683 5680 5676 5671 5667 5661 5655 5650 5644 5637 5630 5623 5615 5607 5598 5589 5579 5570 5559 5548 5537 5525 5510
5625 5632 5640 5648 5654 5661 5666 5670 5674 5677 5679 5681 5682 5682 5682 5682 5682 5681 5679 5677 5674 5670 5666 5661 5656 5650 5644 5638 5632 5625 5617 5609 5600 5591 5582 5573 5563 5553 5541 5530 5517 5502 5486
5619 5626 5633 5641 5649 5656 5660 5664 5667 5670 5672 5674 5675 5675 5675 5675 5674 5672 5671 5668 5664 5660 5656 5651 5645 5639 5633 5626 5619 5611 5603 5594 5585 5575 5566 5557 5546 5535 5522 5508 5493 5477 5460
5613 5621 5629 5638 5645 5649 5654 5658 5661 5664 5666 5667 5668 5668 5668 5667 5666 5664 5662 5659 5655 5651 5646 5640 5634 5627 5620 5613 5606 5598 5589 5579 5569 5560 5550 5540 5527 5514 5500 5485 5467 5449 5430
5611 5618 5626 5634 5640 5644 5649 5653 5656 5658 5660 5661 5661 5661 5661 5660 5658 5656 5653 5649 5645 5640 5635 5628 5622 5615 5608 5600 5592 5584 5574 5565 5555 5545 5534 5521 5507 5492 5476 5457 5440 5418 5399
5610 5615 5622 5629 5635 5640 5644 5648 5650 5651 5653 5654 5655 5654 5653 5652 5649 5647 5643 5640 5635 5629 5624 5617 5610 5603 5595 5587 5578 5568 5560 5550 5539 5528 5516 5501 5486 5470 5453 5433 5411 5389 5369
5607 5612 5620 5627 5632 5636 5640 5642 5644 5646 5647 5648 5648 5647 5645 5643 5641 5638 5634 5630 5624 5618 5612 5606 5598 5590 5583 5573 5564 5554 5545 5535 5522 5510 5495 5481 5462 5444 5427 5410 5391 5374 5356
5607 5612 5619 5625 5629 5633 5636 5638 5639 5640 5641 5641 5641 5639 5637 5634 5632 5629 5624 5619 5613 5607 5601 5593 5586 5578 5569 5560 5551 5541 5531 5518 5505 5489 5473 5458 5441 5420 5402 5388 5376 5360 5347
5608 5613 5618 5623 5627 5630 5632 5633 5634 5634 5634 5634 5632 5631 5628 5626 5623 5619 5614 5608 5602 5596 5588 5582 5573 5565 5556 5547 5538 5528 5516 5503 5488 5470 5450 5433 5417 5399 5382 5371 5359 5350 5340
5609 5613 5618 5622 5624 5626 5627 5627 5628 5628 5627 5626 5625 5623 5620 5617 5613 5608 5603 5597 5591 5584 5577 5568 5560 5552 5544 5534 5523 5511 5498 5486 5470 5451 5430 5411 5393 5378 5366 5356 5348 5341 5334
5608 5613 5616 5619 5620 5621 5621 5621 5621 5621 5620 5619 5617 5614 5611 5607 5603 5598 5592 5587 5580 5573 5565 5558 5548 5540 5530 5519 5507 5493 5479 5463 5449 5430 5410 5392 5376 5363 5353 5346 5339 5333 5326
5608 5611 5613 5613 5614 5614 5615 5615 5615 5614 5613 5611 5608 5605 5602 5598 5593 5588 5582 5576 5569 5562 5554 5545 5536 5525 5514 5502 5491 5476 5460 5442 5426 5408 5388 5374 5362 5351 5344 5338 5332 5325 5319
5605 5606 5608 5608 5609 5610 5610 5610 5609 5607 5605 5603 5600 5597 5593 5588 5583 5578 5572 5565 5558 5550 5542 5533 5524 5513 5500 5487 5473 5458 5441 5424 5406 5387 5372 5360 5350 5342 5336 5330 5325 5319 5313
5601 5602 5603 5604 5605 5605 5604 5603 5602 5600 5598 5595 5592 5588 5584 5579 5573 5567 5560 5553 5546 5538 5530 5520 5510 5498 5484 5469 5455 5440 5422 5405 5388 5374 5361 5349 5342 5335 5329 5323 5318 5312 5306
5598 5599 5600 5600 5600 5600 5599 5598 5596 5593 5590 5587 5584 5579 5574 5569 5563 5557 5550 5543 5534 5526 5517 5507 5495 5482 5467 5451 5434 5416 5398 5382 5370 5359 5350 5341 5334 5328 5322 5316 5310 5305 5299
5595 5596 5597 5597 5596 5595 5593 5591 5588 5586 5582 5579 5574 5570 5564 5559 5553 5546 5539 5530 5522 5512 5501 5489 5476 5462 5445 5429 5413 5395 5379 5366 5356 5348 5342 5334 5329 5323 5318 5311 5305 5300 5294